Location: Unspecified
(47.6578°N, 23.5640°E)
Time: 04:10:39
(UTC+02:00)

ISS - Pass Details

Date: 13 December 2017
Orbit: 402 x 407 km, 51.6° (Epoch: 10 December)

Event Time Altitude Azimuth Distance (km) Brightness Sun altitude
Rises 19:03:59 0° 289° (WNW) 2,330 1.0 -24.1°
Reaches altitude 10° 19:06:17 10° 275° (W) 1,465 0.0 -24.5°
Enters shadow 19:08:57 24° 221° (SW) 875 -1.7 -25.0°
